• In Slovakia
  • List of Countries
  • For 7 days
  • Water Temperature
  • Satellite Maps
  • Weather Map
  • Weather Widgets
  • user-avatar
    Login

    Hourly Weather Mayrhofen

    Today, 17 January, Wednesday

    Time Temperature Precipitation Wind Pressure Humidity
    00:00 -5°C° 1 mm 2 mps 603 mmHg 94%
    01:00 -3°C° 0 mm 1 mps 603 mmHg 95%
    02:00 -3°C° 0.8 mm 1 mps 603 mmHg 95%
    03:00 -5°C° 0.8 mm 2 mps 602 mmHg 94%
    04:00 -5°C° 0.8 mm 2 mps 602 mmHg 94%
    05:00 -6°C° 0.6 mm 2 mps 602 mmHg 93%
    06:00 -7°C° 0.6 mm 2 mps 601 mmHg 93%
    07:00 -8°C° 0 mm 2 mps 601 mmHg 92%
    08:00 -8°C° 0.7 mm 2 mps 602 mmHg 91%
    09:00 -9°C° 0.7 mm 3 mps 602 mmHg 91%
    10:00 -8°C° 0.7 mm 3 mps 603 mmHg 91%
    11:00 -10°C° 0.9 mm 4 mps 603 mmHg 90%
    12:00 -11°C° 0.9 mm 5 mps 604 mmHg 90%
    13:00 -12°C° 0.9 mm 5 mps 604 mmHg 90%
    14:00 -12°C° 0.5 mm 5 mps 604 mmHg 90%
    15:00 -12°C° 0.5 mm 5 mps 605 mmHg 91%
    16:00 -13°C° 0.5 mm 5 mps 605 mmHg 91%
    17:00 -13°C° 0.8 mm 5 mps 606 mmHg 92%
    18:00 -13°C° 0.8 mm 5 mps 606 mmHg 93%
    19:00 -13°C° 0.8 mm 5 mps 607 mmHg 94%
    20:00 -12°C° 0.9 mm 4 mps 607 mmHg 95%
    21:00 -12°C° 0.9 mm 4 mps 608 mmHg 95%
    22:00 -11°C° 0.9 mm 4 mps 608 mmHg 95%
    23:00 -11°C° 0.9 mm 4 mps 609 mmHg 95%

    Tomorrow, 18 January, Thursday

    Time Temperature Precipitation Wind Pressure Humidity
    00:00 -10°C° 0.9 mm 3 mps 609 mmHg 95%
    01:00 -10°C° 0.9 mm 3 mps 610 mmHg 95%
    02:00 -10°C° 0.8 mm 3 mps 610 mmHg 95%
    03:00 -10°C° 0.8 mm 3 mps 610 mmHg 95%
    04:00 -9°C° 0.8 mm 2 mps 610 mmHg 95%
    05:00 -9°C° 0.5 mm 2 mps 610 mmHg 94%
    06:00 -9°C° 0.5 mm 2 mps 610 mmHg 93%
    07:00 -9°C° 0.5 mm 2 mps 609 mmHg 92%
    08:00 -8°C° 0.3 mm 2 mps 610 mmHg 91%
    09:00 -8°C° 0.3 mm 3 mps 610 mmHg 89%
    10:00 -7°C° 0.3 mm 3 mps 610 mmHg 88%
    11:00 -6°C° 0.6 mm 3 mps 610 mmHg 89%
    12:00 -5°C° 0.6 mm 3 mps 610 mmHg 90%
    13:00 -3°C° 0.6 mm 2 mps 610 mmHg 92%
    14:00 -3°C° 0.5 mm 2 mps 609 mmHg 92%
    15:00 -3°C° 0.5 mm 2 mps 609 mmHg 92%
    16:00 -2°C° 0.5 mm 2 mps 609 mmHg 93%
    17:00 -3°C° 0.4 mm 2 mps 609 mmHg 92%
    18:00 -3°C° 0.4 mm 2 mps 609 mmHg 92%
    19:00 -3°C° 0.4 mm 2 mps 609 mmHg 91%
    20:00 -3°C° 0.3 mm 2 mps 609 mmHg 91%
    21:00 -3°C° 0.3 mm 2 mps 609 mmHg 91%
    22:00 -3°C° 0.3 mm 2 mps 609 mmHg 91%
    23:00 -3°C° 0.3 mm 2 mps 609 mmHg 91%

    Day after tomorrow, 19 January, Friday

    Time Temperature Precipitation Wind Pressure Humidity
    00:00 -3°C° 0.3 mm 2 mps 609 mmHg 91%
    01:00 -3°C° 0.3 mm 2 mps 609 mmHg 91%
    02:00 -3°C° 0.9 mm 2 mps 608 mmHg 93%
    03:00 -1°C° 0.9 mm 1 mps 608 mmHg 94%
    04:00 -1°C° 0.9 mm 1 mps 608 mmHg 95%
    05:00 -1°C° 1.2 mm 1 mps 608 mmHg 95%
    06:00 -2°C° 1.2 mm 1 mps 608 mmHg 95%
    07:00 -4°C° 1.2 mm 2 mps 608 mmHg 96%
    08:00 -4°C° 0.9 mm 2 mps 609 mmHg 96%
    09:00 -4°C° 0.9 mm 2 mps 609 mmHg 96%
    10:00 -4°C° 0.9 mm 2 mps 609 mmHg 97%
    11:00 -4°C° 0.8 mm 2 mps 609 mmHg 96%
    12:00 -4°C° 0.8 mm 2 mps 609 mmHg 96%
    13:00 -5°C° 0.8 mm 2 mps 608 mmHg 96%
    14:00 -5°C° 0.6 mm 2 mps 609 mmHg 96%
    15:00 -5°C° 0.6 mm 2 mps 609 mmHg 95%
    16:00 -6°C° 0.6 mm 2 mps 609 mmHg 95%
    17:00 -7°C° 0.3 mm 2 mps 609 mmHg 95%
    18:00 -7°C° 0.3 mm 2 mps 609 mmHg 95%
    19:00 -8°C° 0.3 mm 2 mps 609 mmHg 95%
    20:00 -9°C° 0.1 mm 2 mps 608 mmHg 94%
    21:00 -10°C° 0.1 mm 2 mps 608 mmHg 93%
    22:00 -10°C° 0.1 mm 1 mps 608 mmHg 92%
    23:00 -10°C° 0.1 mm 1 mps 608 mmHg 91%

    20 January, Saturday

    Time Temperature Precipitation Wind Pressure Humidity
    00:00 -13°C° 0.1 mm 2 mps 607 mmHg 90%
    01:00 -13°C° 0.1 mm 2 mps 607 mmHg 89%
    02:00 -13°C° 0.5 mm 2 mps 608 mmHg 90%
    03:00 -12°C° 0.5 mm 2 mps 608 mmHg 92%
    04:00 -10°C° 0.5 mm 2 mps 608 mmHg 93%
    05:00 -12°C° 0.3 mm 2 mps 608 mmHg 92%
    06:00 -12°C° 0.3 mm 2 mps 608 mmHg 92%
    07:00 -10°C° 0.3 mm 1 mps 608 mmHg 91%
    08:00 -10°C° 0.7 mm 1 mps 608 mmHg 92%
    09:00 -9°C° 0.7 mm 1 mps 609 mmHg 93%
    10:00 -9°C° 0.7 mm 1 mps 609 mmHg 93%
    11:00 -8°C° 0.8 mm 1 mps 609 mmHg 92%
    12:00 -8°C° 0.8 mm 1 mps 609 mmHg 91%
    13:00 -8°C° 0.8 mm 2 mps 608 mmHg 90%
    14:00 -8°C° 0.8 mm 1 mps 608 mmHg 91%
    15:00 -8°C° 0.8 mm 1 mps 608 mmHg 92%
    16:00 -8°C° 0.8 mm 1 mps 607 mmHg 94%
    17:00 -9°C° 0.7 mm 1 mps 607 mmHg 94%
    18:00 -9°C° 0.7 mm 1 mps 607 mmHg 93%
    19:00 -10°C° 0.7 mm 1 mps 607 mmHg 93%
    20:00 -10°C° 0.6 mm 1 mps 607 mmHg 93%
    21:00 -10°C° 0.6 mm 1 mps 607 mmHg 93%
    22:00 -10°C° 0.6 mm 1 mps 607 mmHg 93%
    23:00 -10°C° 0.5 mm 1 mps 607 mmHg 94%

    21 January, Sunday

    Time Temperature Precipitation Wind Pressure Humidity
    00:00 -10°C° 0.5 mm 1 mps 608 mmHg 95%
    01:00 -12°C° 0.5 mm 2 mps 608 mmHg 95%
    02:00 -12°C° 0.2 mm 2 mps 608 mmHg 95%
    03:00 -13°C° 0.2 mm 2 mps 609 mmHg 95%
    04:00 -13°C° 0.2 mm 2 mps 610 mmHg 95%
    05:00 -14°C° 0.1 mm 2 mps 610 mmHg 95%
    06:00 -15°C° 0.1 mm 2 mps 610 mmHg 95%
    07:00 -16°C° 0.1 mm 2 mps 611 mmHg 94%
    08:00 -15°C° 0.1 mm 2 mps 612 mmHg 93%
    09:00 -14°C° 0.1 mm 2 mps 613 mmHg 91%
    10:00 -13°C° 0.1 mm 2 mps 614 mmHg 89%
    11:00 -12°C° 0.1 mm 2 mps 614 mmHg 85%
    12:00 -10°C° 0.1 mm 2 mps 614 mmHg 81%
    13:00 -9°C° 0.1 mm 2 mps 615 mmHg 77%
    14:00 -10°C° 0 mm 2 mps 615 mmHg 80%
    15:00 -10°C° 0 mm 2 mps 615 mmHg 83%
    16:00 -10°C° 0 mm 1 mps 614 mmHg 85%
    17:00 -10°C° 0 mm 1 mps 614 mmHg 85%
    18:00 -11°C° 0 mm 1 mps 614 mmHg 84%
    19:00 -11°C° 0 mm 1 mps 614 mmHg 84%
    20:00 -11°C° 0.6 mm 1 mps 615 mmHg 87%
    21:00 -10°C° 0.6 mm 1 mps 615 mmHg 90%
    22:00 -9°C° 0.6 mm 1 mps 615 mmHg 93%
    23:00 -8°C° 1 mm 1 mps 615 mmHg 94%

    22 January, Monday

    Time Temperature Precipitation Wind Pressure Humidity
    00:00 -9°C° 1 mm 2 mps 615 mmHg 94%
    01:00 -8°C° 1 mm 2 mps 615 mmHg 94%
    02:00 -7°C° 1.1 mm 2 mps 615 mmHg 94%
    03:00 -6°C° 1.1 mm 2 mps 614 mmHg 95%
    04:00 -6°C° 1.1 mm 2 mps 614 mmHg 95%
    05:00 -5°C° 2.1 mm 2 mps 614 mmHg 95%
    06:00 -5°C° 2.1 mm 2 mps 614 mmHg 95%
    07:00 -4°C° 2.1 mm 2 mps 614 mmHg 95%
    08:00 -4°C° 3.3 mm 2 mps 614 mmHg 96%
    09:00 -3°C° 3.3 mm 2 mps 614 mmHg 96%
    10:00 -2°C° 3.3 mm 2 mps 614 mmHg 97%
    11:00 -2°C° 2.3 mm 2 mps 615 mmHg 97%
    12:00 -2°C° 2.3 mm 2 mps 615 mmHg 97%
    13:00 -1°C° 2.3 mm 2 mps 616 mmHg 97%
    14:00 -1°C° 0.7 mm 2 mps 616 mmHg 97%
    15:00 -1°C° 0.7 mm 2 mps 616 mmHg 97%
    16:00 -1°C° 0.7 mm 2 mps 616 mmHg 97%
    17:00 -1°C° 0.3 mm 2 mps 616 mmHg 96%
    18:00 -2°C° 0.3 mm 2 mps 616 mmHg 95%
    19:00 -3°C° 0.3 mm 2 mps 617 mmHg 94%
    20:00 -3°C° 0 mm 2 mps 617 mmHg 93%
    21:00 -3°C° 0 mm 2 mps 617 mmHg 92%
    22:00 -4°C° 0 mm 2 mps 617 mmHg 90%
    23:00 -3°C° 0.2 mm 2 mps 617 mmHg 90%
    Show more